[[{"header":{"parameterUnit":"m.s-1","parameterCategory":1,"la1":30.2991,"la2":30.254,"lo1":-89.0895,"lo2":-89.0444,"dy":0.0017,"dx":0.0017,"nx":28,"ny":28,"refTime":"2025-01-10T03:00:00:Z","depth":0,"parameterNumber":2,"parameterNumberName":"U-component_of_WINDS"},"data":[0,0,0,0,0,0,0,0,0,0,0,0,0,0,0,0,0,0,0,0,0,0,0,0,0,0,0,0,0,0,0,0,0,0,0,0,0,0,0,0,0,0,0,0,0,0,0,0,0,0,0,0,0,0,0,0,0,0,1.3574,1.3574,0,1.3575,1.3575,1.3575,1.3565,1.3564,1.3564,1.3564,1.3563,1.3563,1.3563,0,0,0,0,0,0,0,0,0,0,0,0,0,1.3564,1.3564,1.3574,1.3574,1.3574,1.3575,1.3575,1.3575,1.3565,1.3564,1.3564,1.3564,1.3563,1.3563,1.3563,0,0,0,0,0,0,0,0,0,0,0,0,0,1.3567,1.3564,1.3574,1.3569,1.3569,1.3575,1.3575,1.3575,1.3565,1.3564,1.3564,1.3563,1.3563,1.3563,1.3563,1.3573,0,0,1.3564,1.3564,0,0,0,0,0,0,0,0,1.3566,1.3567,1.357,1.3569,1.3569,1.3569,1.3571,1.3574,1.3565,1.3566,1.3564,1.3563,1.3565,1.3565,1.3566,1.3573,1.3573,1.3564,1.3565,1.3565,1.3565,0,0,0,0,0,0,0,1.3566,1.3567,1.3574,1.357,1.3569,1.3567,1.3567,1.3571,1.3568,1.3566,1.3565,1.3566,1.3565,1.3566,1.3566,1.3573,1.3564,1.3565,1.3565,1.3565,1.359,1.359,0,0,0,0,0,0,1.3567,1.3567,1.3574,1.3574,1.3567,1.3567,1.3567,1.3569,1.3568,1.3567,1.3566,1.3565,1.3565,1.3566,1.3566,1.3578,1.3565,1.3565,1.3565,1.3589,1.359,1.359,0,0,0,0,0,0,1.3567,1.3568,1.3574,1.357,1.3571,1.3568,1.357,1.357,1.3571,1.3568,1.3567,1.3568,1.3565,1.3565,1.3572,1.3578,1.3565,1.3565,1.3589,1.3589,1.359,1.3602,0,0,0,0,0,0,1.3566,1.3568,1.3571,1.357,1.3571,1.358,1.3571,1.357,1.3572,1.357,1.3569,1.3568,1.3565,1.3571,1.3572,1.3578,1.3566,1.3588,1.3589,1.359,1.3601,1.3603,1.3605,0,0,0,0,0,1.3566,1.3574,1.3572,1.3573,1.3576,1.3581,1.3581,1.3577,1.3572,1.3576,1.3574,1.3569,1.3577,1.3572,1.3573,1.3579,1.3588,1.3589,1.359,1.36,1.3603,1.3605,0,0,0,0,0,0,1.3575,1.3574,1.3571,1.3579,1.358,1.3579,1.3583,1.358,1.3581,1.358,1.3575,1.3575,1.3582,1.3581,1.3576,1.3589,1.3582,1.3583,1.3589,1.3591,1.3593,1.3593,1.3566,0,0,0,0,0,1.3578,1.3582,1.3581,1.3588,1.3589,1.3586,1.3588,1.3585,1.3586,1.3586,1.3585,1.3585,1.3588,1.359,1.3592,1.3601,1.3601,1.3606,1.3608,1.3609,1.361,1.3615,1.3617,1.3594,1.3594,1.3594,0,0,1.3584,1.3584,1.3587,1.359,1.359,1.3595,1.3587,1.3591,1.3594,1.3586,1.3592,1.3592,1.3592,1.36,1.3603,1.3599,1.3617,1.361,1.3612,1.3612,1.3616,1.3619,1.3621,1.3594,1.3594,1.3594,0,0,1.3597,1.3598,1.3604,1.3605,1.3606,1.3604,1.3606,1.3606,1.3605,1.3612,1.3606,1.361,1.3615,1.3615,1.3616,1.3631,1.3626,1.3632,1.3641,1.3646,1.3648,1.365,1.3655,1.3657,1.3633,1.3633,1.3633,0,1.3604,1.3611,1.3608,1.3613,1.3615,1.3609,1.3616,1.3617,1.3618,1.3619,1.3615,1.3622,1.3622,1.363,1.3634,1.3635,1.3637,1.3632,1.3648,1.365,1.3651,1.3656,1.3658,1.3634,1.3634,1.3634,1.3634,0,1.3619,1.3624,1.3629,1.3632,1.3634,1.364,1.3638,1.3641,1.3639,1.3637,1.3644,1.3644,1.3646,1.3648,1.3645,1.3656,1.3654,1.3649,1.3641,1.3654,1.3659,1.3661,1.3635,1.3635,1.3634,1.3634,0,0,1.3636,1.3639,1.3641,1.3642,1.3644,1.3647,1.3653,1.3657,1.3659,1.3661,1.3666,1.3671,1.3667,1.3668,1.3665,1.367,1.3682,1.3665,1.3665,1.3668,1.3694,1.3698,1.37,1.3679,1.368,1.368,1.3694,0,1.3649,1.366,1.3658,1.3668,1.3673,1.3668,1.3673,1.3675,1.3675,1.3678,1.3677,1.3681,1.3676,1.3676,1.3681,1.368,1.3687,1.3679,1.3683,1.3684,1.3683,1.3702,1.3706,1.3719,1.3696,1.3697,1.3697,0,1.3665,1.3668,1.3679,1.3681,1.3683,1.3688,1.3691,1.3695,1.3697,1.3696,1.3698,1.3695,1.3701,1.3694,1.3702,1.3696,1.3698,1.3698,1.3699,1.3698,1.369,1.3702,1.3723,1.3725,1.37,1.3699,1.3699,0,1.3676,1.3684,1.3691,1.3693,1.3695,1.3699,1.37,1.3701,1.3704,1.3707,1.3708,1.3712,1.3714,1.3716,1.3714,1.3709,1.3723,1.3716,1.3722,1.3722,1.3724,1.3724,1.3746,1.3727,1.3727,1.3727,1.3727,0,1.369,1.3697,1.3696,1.3701,1.3709,1.3707,1.3715,1.3715,1.3717,1.3721,1.3718,1.3722,1.3719,1.3723,1.3722,1.3729,1.373,1.3729,1.3729,1.3729,1.3729,1.373,1.3729,1.3727,1.3727,1.3727,1.3727,0,1.3703,1.3703,1.3712,1.3714,1.3715,1.372,1.3722,1.3726,1.3726,1.3732,1.3733,1.3733,1.3738,1.3736,1.3741,1.374,1.3749,1.3748,1.3749,1.3748,1.3755,1.3754,1.3777,1.378,1.3759,1.376,1.376,0,1.3712,1.3717,1.3721,1.3724,1.3725,1.373,1.3733,1.3732,1.3735,1.3739,1.3743,1.3748,1.3751,1.3759,1.3759,1.3763,1.3761,1.3769,1.3761,1.3762,1.3761,1.376,1.3761,1.377,1.377,1.377,1.3771,0,1.3727,1.3727,1.3732,1.3737,1.3741,1.3744,1.3748,1.375,1.375,1.3753,1.3759,1.3762,1.3768,1.3772,1.3776,1.3777,1.3774,1.3773,1.3775,1.3775,1.3775,1.3775,1.3752,1.3772,1.3772,1.3772,1.3772,1.3772,1.3738,1.3743,1.3746,1.3752,1.3754,1.3758,1.3762,1.3763,1.3768,1.3773,1.3772,1.3778,1.3781,1.3786,1.3788,1.3792,1.3789,1.3792,1.3792,1.3793,1.3793,1.3776,1.3793,1.3793,1.3793,1.3793,1.3793,0,1.3752,1.3755,1.376,1.3766,1.377,1.3768,1.3772,1.3775,1.3781,1.3784,1.3788,1.3795,1.38,1.3801,1.3806,1.3809,1.3808,1.381,1.381,1.381,1.3796,1.3794,1.3811,1.3811,1.3811,1.3811,1.3811,1.3811,1.3761,1.3769,1.377,1.3779,1.3782,1.3788,1.3791,1.3794,1.3797,1.3804,1.3809,1.381,1.3812,1.3817,1.3822,1.3822,1.3823,1.3827,1.3826,1.3813,1.3811,1.3809,1.3807,1.3827,1.3827,1.384,1.384,1.384]},{"header":{"parameterUnit":"m.s-1","parameterCategory":1,"la1":30.2991,"la2":30.254,"lo1":-89.0895,"lo2":-89.0444,"dy":0.0017,"dx":0.0017,"nx":28,"ny":28,"refTime":"2025-01-10T03:00:00:Z","depth":0,"parameterNumber":3,"parameterNumberName":"V-component_of_WINDS"},"data":[0,0,0,0,0,0,0,0,0,0,0,0,0,0,0,0,0,0,0,0,0,0,0,0,0,0,0,0,0,0,0,0,0,0,0,0,0,0,0,0,0,0,0,0,0,0,0,0,0,0,0,0,0,0,0,0,0,0,-2.2046,-2.2047,0,-2.2138,-2.2139,-2.214,-2.2156,-2.2155,-2.2155,-2.2154,-2.2248,-2.2251,-2.2255,0,0,0,0,0,0,0,0,0,0,0,0,0,-2.1884,-2.1887,-2.2046,-2.2047,-2.2048,-2.2138,-2.2139,-2.2141,-2.2156,-2.2155,-2.2154,-2.2153,-2.2247,-2.2251,-2.2255,0,0,0,0,0,0,0,0,0,0,0,0,0,-2.1963,-2.1888,-2.2046,-2.2067,-2.207,-2.2138,-2.214,-2.2141,-2.2156,-2.2155,-2.2154,-2.2153,-2.2246,-2.2251,-2.2255,-2.2309,0,0,-2.227,-2.2272,0,0,0,0,0,0,0,0,-2.1959,-2.1969,-2.2063,-2.2066,-2.2069,-2.2135,-2.2117,-2.2197,-2.2157,-2.2124,-2.2154,-2.2152,-2.2211,-2.2219,-2.2239,-2.2313,-2.2317,-2.2271,-2.2274,-2.2276,-2.2277,0,0,0,0,0,0,0,-2.1953,-2.1965,-2.2083,-2.2064,-2.2068,-2.2072,-2.2082,-2.2132,-2.2173,-2.2126,-2.2128,-2.2138,-2.2213,-2.2234,-2.2241,-2.2319,-2.2271,-2.2275,-2.2278,-2.228,-2.2445,-2.2446,0,0,0,0,0,0,-2.1944,-2.1961,-2.208,-2.2085,-2.201,-2.2076,-2.2087,-2.2115,-2.2172,-2.218,-2.2139,-2.2139,-2.2226,-2.2235,-2.2245,-2.2313,-2.2276,-2.228,-2.2283,-2.2444,-2.2445,-2.2447,0,0,0,0,0,0,-2.1941,-2.1955,-2.2076,-2.2024,-2.2039,-2.208,-2.2111,-2.2117,-2.2138,-2.2182,-2.219,-2.2154,-2.2226,-2.2238,-2.2294,-2.2317,-2.2282,-2.2287,-2.2442,-2.2444,-2.2446,-2.245,0,0,0,0,0,0,-2.1936,-2.1953,-2.1974,-2.2024,-2.2042,-2.2123,-2.2112,-2.212,-2.2147,-2.2147,-2.2198,-2.2205,-2.2226,-2.2286,-2.2298,-2.2323,-2.2291,-2.244,-2.2443,-2.2445,-2.2448,-2.2452,-2.2456,0,0,0,0,0,-2.193,-2.197,-2.1974,-2.1989,-2.2068,-2.2124,-2.2135,-2.2158,-2.2149,-2.217,-2.2198,-2.2203,-2.2312,-2.2292,-2.2306,-2.2332,-2.2439,-2.2442,-2.2445,-2.2446,-2.2451,-2.2455,0,0,0,0,0,0,-2.1921,-2.1977,-2.1982,-2.204,-2.2077,-2.2127,-2.2154,-2.2162,-2.2203,-2.2201,-2.2228,-2.224,-2.2295,-2.2319,-2.2295,-2.2388,-2.2375,-2.2381,-2.2371,-2.2376,-2.2379,-2.2373,-2.2295,0,0,0,0,0,-2.1926,-2.1966,-2.2013,-2.206,-2.2078,-2.2113,-2.2138,-2.2153,-2.2193,-2.2208,-2.2241,-2.2279,-2.2322,-2.235,-2.2392,-2.2451,-2.2464,-2.2476,-2.248,-2.2483,-2.2488,-2.2524,-2.2531,-2.2458,-2.2458,-2.2458,0,0,-2.1936,-2.1972,-2.1996,-2.2059,-2.2089,-2.2132,-2.2126,-2.217,-2.2202,-2.2215,-2.2271,-2.2296,-2.234,-2.2399,-2.2426,-2.2421,-2.2511,-2.2487,-2.2489,-2.2493,-2.2528,-2.2535,-2.2541,-2.246,-2.246,-2.2459,0,0,-2.1977,-2.2007,-2.205,-2.2082,-2.2128,-2.2151,-2.2162,-2.2211,-2.2228,-2.2284,-2.2295,-2.2334,-2.2407,-2.2439,-2.2465,-2.252,-2.2527,-2.2532,-2.2553,-2.2587,-2.2593,-2.2598,-2.262,-2.2627,-2.2538,-2.2538,-2.2538,0,-2.1984,-2.2048,-2.2071,-2.2116,-2.2145,-2.2159,-2.2204,-2.2232,-2.229,-2.231,-2.2303,-2.2396,-2.2427,-2.2495,-2.2508,-2.2528,-2.2542,-2.2527,-2.259,-2.2596,-2.2601,-2.2622,-2.263,-2.2538,-2.2538,-2.2538,-2.2538,0,-2.2055,-2.2099,-2.2129,-2.2185,-2.2217,-2.2261,-2.2293,-2.2322,-2.2334,-2.2358,-2.2416,-2.2454,-2.2505,-2.2522,-2.2534,-2.2592,-2.2587,-2.2584,-2.2572,-2.2608,-2.2629,-2.2637,-2.2539,-2.2539,-2.2539,-2.2538,0,0,-2.2093,-2.2163,-2.2174,-2.2201,-2.2254,-2.2289,-2.2335,-2.2385,-2.241,-2.245,-2.249,-2.2552,-2.2551,-2.2581,-2.2596,-2.2626,-2.2671,-2.2621,-2.2622,-2.2631,-2.2739,-2.2742,-2.2751,-2.2675,-2.2676,-2.2678,-2.2737,0,-2.2141,-2.2224,-2.2247,-2.2317,-2.2359,-2.2374,-2.2414,-2.2452,-2.2476,-2.2516,-2.2542,-2.2587,-2.2581,-2.2599,-2.2629,-2.2659,-2.2693,-2.2654,-2.2714,-2.2716,-2.2704,-2.2762,-2.2765,-2.2818,-2.2744,-2.2746,-2.2747,0,-2.2209,-2.2252,-2.2326,-2.2376,-2.2394,-2.243,-2.2479,-2.2517,-2.256,-2.2576,-2.2609,-2.2623,-2.2673,-2.2656,-2.2726,-2.2699,-2.2725,-2.2743,-2.2746,-2.2754,-2.2735,-2.2773,-2.2836,-2.2845,-2.2759,-2.2758,-2.2757,0,-2.2232,-2.2307,-2.2362,-2.2384,-2.2443,-2.2469,-2.2494,-2.2537,-2.2566,-2.2609,-2.2629,-2.2677,-2.2703,-2.274,-2.2767,-2.2752,-2.2835,-2.282,-2.2851,-2.2851,-2.2869,-2.2868,-2.2939,-2.2882,-2.2882,-2.2882,-2.2882,0,-2.2285,-2.2331,-2.2374,-2.2408,-2.2459,-2.2486,-2.2537,-2.2563,-2.2601,-2.2641,-2.2656,-2.2693,-2.2726,-2.2768,-2.2789,-2.2844,-2.2856,-2.2871,-2.2876,-2.2871,-2.2869,-2.2889,-2.2887,-2.2884,-2.2883,-2.2883,-2.2883,0,-2.232,-2.2351,-2.2412,-2.2463,-2.2477,-2.2513,-2.2558,-2.2592,-2.2617,-2.2667,-2.2681,-2.272,-2.2771,-2.2801,-2.2864,-2.2878,-2.2941,-2.2943,-2.2926,-2.2929,-2.2959,-2.2957,-2.3047,-2.3061,-2.2993,-2.2993,-2.2994,0,-2.2353,-2.2389,-2.2444,-2.2473,-2.2499,-2.2544,-2.2574,-2.2602,-2.2634,-2.2687,-2.2715,-2.2767,-2.2809,-2.2889,-2.2924,-2.2973,-2.2978,-2.3007,-2.2986,-2.298,-2.2982,-2.298,-2.2985,-2.3011,-2.3011,-2.3012,-2.3012,0,-2.2409,-2.2423,-2.2466,-2.2516,-2.2552,-2.2592,-2.2632,-2.2655,-2.269,-2.2724,-2.2777,-2.281,-2.2875,-2.2927,-2.2979,-2.3007,-2.3016,-2.3018,-2.3028,-2.3024,-2.3014,-2.3022,-2.2938,-2.3016,-2.3016,-2.3016,-2.3015,-2.3015,-2.2446,-2.2479,-2.2524,-2.2573,-2.2606,-2.2644,-2.2679,-2.2709,-2.2753,-2.2809,-2.2822,-2.2878,-2.2922,-2.2994,-2.3022,-2.3066,-2.3062,-2.3076,-2.308,-2.3084,-2.3086,-2.3005,-2.3076,-2.3076,-2.3076,-2.3075,-2.3075,0,-2.2504,-2.2534,-2.2579,-2.2635,-2.2674,-2.2679,-2.2724,-2.2757,-2.2805,-2.2846,-2.2888,-2.2949,-2.3,-2.3039,-2.3091,-2.3119,-2.3125,-2.3132,-2.3131,-2.3138,-2.3085,-2.3073,-2.3126,-2.3126,-2.3126,-2.3126,-2.3126,-2.3126,-2.2539,-2.2597,-2.2616,-2.2691,-2.2721,-2.2776,-2.2801,-2.2837,-2.2869,-2.2937,-2.2979,-2.3004,-2.3045,-2.3101,-2.3148,-2.3158,-2.3178,-2.3184,-2.3196,-2.3146,-2.3141,-2.3136,-2.3124,-2.3188,-2.3188,-2.3245,-2.3245,-2.3245]}]]